Location: Beau Repaire
(50.6144°N, 4.0551°E)
Time: 07:08:06
(UTC+00:00)

ACS3 Solar Sail - Pass Details

Date: 15 May 2026
Orbit: 883 x 949 km, 97.2° (Epoch: 5 June)

Event Time Altitude Azimuth Distance (km) Brightness Sun altitude
Rises 23:28:21 0° 20° (NNE) 3,504 5.9 -20.3°
Reaches altitude 10° 23:31:12 10° 34° (NNE) 2,556 4.8 -20.3°
Maximum altitude 23:35:52 26° 89° (E) 1,684 3.0 -20.3°
Enters shadow 23:38:17 20° 125° (SE) 1,955 3.1 -20.3°
